www.pogodaiklimat.ru

Погода и климат >> Архив погоды >> Украина >> Боходухов


ПОГОДА в Боходухове

  • Прогноз погоды в Боходухове
  • Монитор погоды в Боходухове

АРХИВ ПОГОДЫ в Боходухове

Время (UTC), дата Ветер
(напр.,м/с)
 
Видим.   Явления Облачность Т
(С)
Тd
(С)
f
(%)
Тe
(С)
Тes
(С)
Комфортность P
(гПа)
Po
(гПа)
Тmin
(С)
Tmax
(С)
R
(мм)
R24
(мм)
S
(см)
00 13.06 В 3 10 км 8/3 600 м
[Sc Ac trans Ci]
+22.3 +13.9 59 +25 +25 комфорт 1014.9 992.1
03 13.06 СВ 3 10 км 8/3 600 м
[Sc Ci]
+21.5 +15.8 70 +25 +25 комфорт 1015.0 991.5
06 13.06 В 3 10 км 6/0
[Ci fib]
+26.3 +18.2 61 +31 +34 душно 1016.0 992.9 +21.3
09 13.06 СВ 4 10 км 9/6 1000 м
[Cu med, cong Ci fib]
+29.5 +15.6 43 +32 +32 душно 1016.0 993.1
12 13.06 В 4 10 км 8/8 600 м
[Cb calv]
+29.7 +13.0 36 +31 +31 жарко 1016.0 993.1
15 13.06 СВ 2 10 км 4/3 1000 м
[Cu hum Ci fib]
+27.9 +10.6 34 +28 +31 жарко 1016.0 992.9
18 13.06 СВ 4 10 км 4/0
[Ci fib]
+24.7 +12.0 45 +26 +26 жарко 1018.0 994.6 +31.1
21 13.06 В 3 10 км ясно +21.7 +13.3 59 +24 +24 комфорт 1019.0 995.4
00 14.06 В 3 10 км ясно +18.9 +11.5 62 +20 +20 1021.0 997.1
03 14.06 В 4 10 км ясно +17.4 +7.7 53 +17 +18 1021.0 996.9
06 14.06 В 3 10 км ясно +20.5 +8.8 47 +22 +30 комфорт 1021.0 997.2 +16.5
09 14.06 ЮВ 2 10 км ясно +25.1 +11.6 43 +27 +44 жарко 1020.0 996.6
12 14.06 В 1 10 км 3/3 1000 м
[Cu hum]
+27.4 +12.6 40 +29 +40 жарко 1019.0 995.8
15 14.06 С 2 10 км 3/0
[Ci fib]
+28.5 +13.6 40 +30 +33 жарко 1018.0 994.9
18 14.06 СВ 2 10 км ясно +24.9 +13.8 50 +27 +27 жарко 1017.0 993.7 +29.2
21 14.06 В 1 10 км ясно +21.4 +13.8 62 +24 +24 комфорт 1018.0 994.4
00 15.06 З 1 10 км 3/0
[Ci fib]
+19.8 +12.8 64 +23 +23 комфорт 1017.0 993.3
03 15.06 ЮЗ 1 10 км 6/0
[Ci]
+17.6 +15.2 86 +19 +19 1016.0 992.1
06 15.06 З 2 10 км 3/0
[Ci fib]
+26.2 +18.1 61 +31 +37 очень
душно
1015.0 991.9 +16.6
09 15.06 ЮЗ 2 10 км 3/1 1000 м
[Cu hum Ci fib]
+29.7 +18.1 50 +34 +47 очень
душно
1014.0 991.2
12 15.06 З 4 10 км 8/4 1000 м
[Cu med, cong Ci]
+30.5 +16.5 43 +34 +34 очень
душно
1012.0 989.2
15 15.06 СЗ 3 10 км 10/1 1000 м
[Cu med, cong Ac trans Ci fib]
+28.0 +18.4 56 +33 +33 очень
душно
1012.0 989.1
18 15.06 З 2 10 км 8/4 1000 м
[Cu Sc Ac trans Ci fib]
+26.3 +18.9 64 +31 +31 душно 1013.0 989.9 +33.0
21 15.06 ЮВ 1 10 км 8/5 1000 м
[Cu Sc Ac trans Ci fib]
+23.1 +17.8 72 +29 +29 очень
душно
1012.0 988.7
00 16.06 З 2 10 км 6/0
[Ci fib]
+20.4 +16.6 79 +24 +24 комфорт 1012.0 988.5
03 16.06 СЗ 3 10 км 1/0
[Ac trans]
+19.5 +17.3 87 +22 +23 комфорт 1011.0 987.4
06 16.06 С 3 10 км ясно +23.8 +16.6 64 +27 +35 жарко 1012.0 988.7 +19.0
09 16.06 С 4 10 км 6/6 1000 м
[Cu med, cong]
+26.5 +15.2 50 +29 +34 жарко 1011.0 988.0
12 16.06 СЗ 4 10 км 6/6 1000 м
[Cu med, cong]
+27.3 +14.3 45 +30 +33 душно 1011.0 988.0
15 16.06 С 6 10 км 8/8 600 м
[Cb calv]
+24.7 +12.9 48 +27 +27 жарко 1012.0 988.8
18 16.06 С 2 10 км 3/0
[Ci fib]
+21.1 +14.3 65 +24 +24 комфорт 1013.0 989.5 +29.2
21 16.06 СВ 3 10 км ясно +19.3 +13.7 70 +21 +21 комфорт 1014.0 990.3
00 17.06 СВ 1 10 км ясно +17.1 +13.6 80 +18 +18 1015.0 991.1
03 17.06 СВ 1 10 км ясно +18.8 +16.2 85 +21 +22 комфорт 1015.0 991.3
06 17.06 С 2 10 км ясно +22.7 +14.3 59 +26 +35 жарко 1016.0 992.5 +14.5
09 17.06 СВ 2 10 км 8/8 1000 м
[Cu hum]
+24.3 +12.6 48 +26 +26 жарко 1016.0 992.7
12 17.06 С 3 10 км 6/6 1000 м
[Cu hum]
+27.0 +11.8 39 +28 +33 жарко 1015.0 991.9
15 17.06 СЗ 3 10 км 4/4 1000 м
[Cu hum]
+27.2 +12.8 41 +29 +31 жарко 1014.0 990.9
18 17.06 С 1 10 км 3/0
[Ci]
+22.8 +14.9 61 +27 +27 душно 1015.0 991.6 +28.8
21 17.06 СВ 1 10 км ясно +20.2 +14.5 70 +24 +24 комфорт 1015.0 991.4
00 18.06 В 1 10 км ясно +19.3 +13.0 67 +22 +22 комфорт 1016.0 992.3
03 18.06 штиль 0 10 км 3/3 600 м
[Sc]
+19.1 +16.3 84 +21 +21 комфорт 1016.0 992.3
06 18.06 ЮЗ 2 10 км 3/0
[Ci fib]
+24.9 +16.3 59 +28 +35 жарко 1015.0 991.8 +17.0
09 18.06 З 3 10 км 3/3 1000 м
[Cu hum Ac trans]
+27.9 +15.2 46 +31 +41 душно 1014.0 991.0
12 18.06 СЗ 3 10 км 8/6 1000 м
[Cb calv Ac trans Ci fib]
+29.5 +16.3 45 +33 +33 душно 1013.0 990.1
15 18.06 СЗ 3 10 км гроза без осадков 8/4 1000 м
[Cb calv Ac trans]
+27.9 +17.4 53 +32 +32 душно 1013.0 990.0
18 18.06 С 2 10 км {гроза} 3/0
[Ac As]
+24.8 +17.5 64 +29 +29 душно 1013.0 989.8 +31.0
21 18.06 С 3 10 км ясно +21.4 +16.4 73 +25 +25 комфорт 1014.0 990.5
00 19.06 С 4 10 км ясно +19.2 +15.7 80 +21 +21 комфорт 1014.0 990.3
03 19.06 С 4 10 км 1/1 1000 м
[Sc]
+19.7 +16.0 79 +22 +23 комфорт 1014.0 990.4
06 19.06 С 3 10 км ясно +23.2 +17.0 68 +28 +36 душно 1015.0 991.6 +17.5
09 19.06 СВ 4 10 км 8/8 1000 м
[Cu med, cong]
+26.3 +16.5 55 +30 +30 душно 1014.0 990.9
12 19.06 СВ 4 10 км 6/6 1000 м
[Cu med, cong]
+28.7 +13.3 39 +30 +34 жарко 1013.9 991.6
15 19.06 СВ 4 10 км 3/3 1000 м
[Cu med, cong]
+28.1 +13.2 40 +30 +31 жарко 1014.0 991.0
18 19.06 СВ 3 10 км ясно +24.8 +14.0 51 +27 +27 жарко 1014.0 990.7 +29.8

 

Местоположение метеостанции Боходухов (Харьковская область, Украина): широта 50.20 долгота 35.53 высота над уровнем моря 203 м.

В архиве по умолчанию представлена погода в Боходухове за последнюю неделю. Архивные данные за месяц целиком и за предыдущие месяцы, начиная с января 2011 года, Вы можете получить, выбрав интересующий диапазон дат из раскрывающегося списка и нажав кнопку "Ввод!".


*Определитесь, кто Вы:
робот инопланетянин человек

Внимание! Время в таблицах - всемирное. Для получения местного времени необходимо прибавить поправку, которая равна 2 ч.

Смотрите также архив погоды в соседних городах и на ближайших метеорологических станциях:

Погода в Золочеве (Львовская область, Украина) (32 км)
Погода в Коломаке (Харьковская область, Украина) (44 км)
Погода в Харькове (Харьковская область, Украина) (50 км)
Погода в Готне (Белгородская область, Россия) (69 км)
Погода в Лебедине (Сумская область, Украина) (86 км)
Погода в Белгороде (Белгородская область, Россия) (88 км)
Погода в Краснограде (Харьковская область, Украина) (91 км)
Погода в Сумах (Сумская область, Украина) (94 км)
Погода в Полтаве (Полтавская область, Украина) (97 км)
Погода в Комсомольском (Донецкая область, Украина) (98 км)

Пояснения к столбцам:

Ветер - указаны скорость ветра в м/с - средняя за 10 мин, порывы в срок и между сроками (в фигурных скобках) и направление, откуда дует ветер: С - северный, СВ - северо-восточный, В - восточный, ЮВ - юго-восточный, Ю - южный, ЮЗ - юго-западный, З - западный, СЗ - северо-западный.
Видимость - горизонтальная дальность видимости в метрах или километрах. При видимости от 1 до 10 км при отсутствии осадков обычно наблюдается дымка, при ухудшении видимости до 1 км и менее - туман. В сухую погоду видимость может ухудшаться дымом, пылью или мглою.
Явления - указаны атмосферные явления, наблюдавшиеся в срок или в последний час перед сроком; фигурными скобками обозначены явления, наблюдавшиеся между сроками (за 1-3 часа до срока); квадратными скобками обозначены град или гололедные отложения с указанием их диаметра в мм.
Облачность - указаны через наклонную черту общая и нижняя облачность в баллах и высота нижней границы облаков в метрах; квадратными скобками обозначены формы облаков: Ci - перистые, Cs - перисто-слоистые, Cc - перисто-кучевые, Ac - высококучевые, As - высокослоистые, Sc - слоисто-кучевые, Ns - слоисто-дождевые, Cu - кучевые, Cb - кучево-дождевые. Подробнее классификацию облаков см. в Атласе облаков (PDF).
T - Температура воздуха - температура, измеренная на высоте 2 м над землей.
Td - Температура точки росы - температура, при понижении до которой содержащийся в воздухе водяной пар достигнет насыщения.
f - Относительная влажность воздуха - влажноcть воздуха, измеренная на высоте 2 м над землей.
Te - Эффективная температура - температура, которую ощущает одетый по сезону человек в тени. Характеристика душности погоды. При расчете учитывается влияние влажности воздуха и скорости ветра на теплоощущения человека.
Tes - Эффективная температура на солнце - температура, которую ощущает человек, с поправкой на солнечный нагрев. Характеристика знойности погоды. Зависит от высоты солнца над горизонтом, облачности и скорости ветра. Ночью, в пасмурную погоду, а также при ветре 12 м/с и более поправка равна нулю.
P - Атмосферное давление - приведенное к уровню моря атмосферное давление.
Po - Атмосферное давление - измеренное на уровне метеостанции атмосферное давление.
Tmin - Минимальная температура - минимум температуры воздуха на высоте 2 м над землей.
Tmax - Максимальная температура - максимум температуры воздуха на высоте 2 м над землей.
R - Количество осадков - Количество выпавших осадков за период времени, мм. При наведении курсора мыши на число - период времени, за который выпало указанное количество осадков.
R24 - Количество осадков - Количество выпавших осадков за 24 часа, мм.
S - Снежный покров - Высота снежного покрова, см. При наведении курсора мыши на число - состояние снежного покрова и степень покрытия местности в баллах.